Weather History for West Plains, MO

Change the Weather History Date:

Friday, December 7, 2012

  Actual Average Record
Temperature  
Mean Temperature 54 °F 38 °F  
Max Temperature 62 °F 48 °F 73 °F (1966)
Min Temperature 46 °F 28 °F 0 °F (1950)
Degree Days  
Heating Degree Days 11 27  
Month to date heating degree days 73 182  
Since 1 July heating degree days 1017 1034  
Cooling Degree Days 0 0  
Month to date cooling degree days 0 0  
Year to date cooling degree days 1739 1354  
Growing Degree Days 4 (Base 50)    
Moisture  
Dew Point 50 °F    
Average Humidity 85    
Maximum Humidity 100    
Minimum Humidity 63    
Precipitation  
Precipitation 0.00 in 0.15 in 1.05 in (1987)
Month to date precipitation 0.32 1.10  
Year to date precipitation 30.24 43.68  
Sea Level Pressure  
Sea Level Pressure 29.87 in    
Wind  
Wind Speed 3 mph (SW)    
Max Wind Speed 9 mph    
Max Gust Speed 12 mph    
Visibility 6 miles    
Events Fog    
T = Trace of Precipitation, MM = Missing Value Source: NWS Daily Summary

Daily Weather History Graph

Daily Weather History Graph

Search for Another Location

Airport:

Trip Planner

Search our weather history database for the weather conditions in past years. The results will help you decide how hot, cold, wet, or windy it might be!

Date:

Astronomy

Dec. 07, 2012 Rise Set
Actual Time 7:07 AM CST 4:50 PM CST
Civil Twilight 6:38 AM CST 5:19 PM CST
Nautical Twilight 6:06 AM CST 5:52 PM CST
Astronomical Twilight 5:35 AM CST 6:23 PM CST
Moon 12:35 AM CST (12/7) 12:40 PM CST (12/7)
Length of Visible Light 10h 40m
Length of Day
9h 43m
Last Quarter, 38% of the Moon is Illuminated
Dec 7
Last Quarter
Dec 13
New
Dec 19
First Quarter
Dec 28
Full
Jan 4
Last Quarter

Hourly Weather History & Observations

Time (CST) Temp. Windchill Dew Point Humidity Pressure Visibility Wind Dir Wind Speed Gust Speed Precip Events Conditions
12:03 AM 53.6 °F - 51.8 °F 94% 29.91 in 7.0 mi South 6.9 mph - N/A   Overcast
12:33 AM 53.6 °F - 51.8 °F 94% 29.90 in 9.0 mi SSW 4.6 mph - N/A   Overcast
12:53 AM 54.0 °F - 51.1 °F 90% 29.89 in 9.0 mi SSW 5.8 mph - N/A   Overcast
1:00 AM 53.6 °F - 51.8 °F 94% 29.90 in 9.0 mi SSW 5.8 mph - N/A   Overcast
1:53 AM 54.0 °F - 51.1 °F 90% 29.89 in 9.0 mi SSW 3.5 mph - N/A   Overcast
2:30 AM 53.6 °F - 51.8 °F 94% 29.90 in 8.0 mi Calm Calm - N/A   Overcast
2:53 AM 53.1 °F - 51.1 °F 93% 29.89 in 7.0 mi Calm Calm - N/A   Overcast
3:18 AM 53.6 °F - 51.8 °F 94% 29.90 in 6.0 mi South 3.5 mph - N/A   Overcast
3:53 AM 53.1 °F - 51.1 °F 93% 29.89 in 6.0 mi WSW 3.5 mph - N/A   Overcast
4:07 AM 53.6 °F - 51.8 °F 94% 29.90 in 5.0 mi WSW 3.5 mph - N/A   Overcast
4:42 AM 53.6 °F - 51.8 °F 94% 29.89 in 4.0 mi WSW 3.5 mph - N/A   Overcast
4:53 AM 52.0 °F - 51.1 °F 97% 29.89 in 4.0 mi Calm Calm - N/A   Overcast
5:01 AM 51.8 °F - 50.0 °F 94% 29.89 in 1.5 mi Calm Calm - N/A   Overcast
5:04 AM 51.8 °F - 50.0 °F 94% 29.89 in 1.0 mi Calm Calm - N/A   Overcast
5:12 AM 51.8 °F - 48.2 °F 88% 29.89 in 0.8 mi Calm Calm - N/A   Overcast
5:43 AM 51.8 °F - 50.0 °F 94% 29.89 in 1.2 mi Calm Calm - N/A   Overcast
5:53 AM 50.0 °F - 48.9 °F 96% 29.88 in 0.8 mi Calm Calm - N/A   Overcast
6:53 AM 46.0 °F 44.8 °F 45.0 °F 96% 29.90 in 0.2 mi WSW 3.5 mph - N/A Fog Fog
7:53 AM 48.9 °F - 48.0 °F 97% 29.89 in 0.2 mi Calm Calm - N/A Fog Fog
8:29 AM 50.0 °F - 50.0 °F 100% 29.89 in 1.2 mi Calm Calm - N/A   Overcast
8:34 AM 51.8 °F - 50.0 °F 94% 29.89 in 2.5 mi Calm Calm - N/A   Overcast
8:42 AM 51.8 °F - 50.0 °F 94% 29.90 in 4.0 mi SW 3.5 mph - N/A   Overcast
8:53 AM 52.0 °F - 50.0 °F 93% 29.89 in 5.0 mi SW 4.6 mph - N/A   Overcast
9:53 AM 54.0 °F - 50.0 °F 86% 29.90 in 10.0 mi SW 4.6 mph - N/A   Overcast
10:53 AM 55.9 °F - 48.9 °F 77% 29.89 in 10.0 mi WSW 6.9 mph - N/A   Mostly Cloudy
11:53 AM 57.9 °F - 48.9 °F 72% 29.86 in 10.0 mi West 5.8 mph - N/A   Overcast
12:53 PM 60.1 °F - 48.9 °F 67% 29.83 in 10.0 mi Calm Calm - N/A   Scattered Clouds
1:22 PM 60.8 °F - 48.2 °F 63% 29.83 in 10.0 mi Calm Calm - N/A   Mostly Cloudy
1:53 PM 61.0 °F - 48.9 °F 64% 29.81 in 10.0 mi Variable 5.8 mph - N/A   Mostly Cloudy
2:20 PM 60.8 °F - 48.2 °F 63% 29.82 in 10.0 mi South 3.5 mph - N/A   Mostly Cloudy
2:53 PM 60.1 °F - 48.0 °F 64% 29.81 in 10.0 mi SSW 4.6 mph - N/A   Overcast
3:53 PM 60.1 °F - 48.9 °F 67% 29.82 in 10.0 mi Calm Calm - N/A   Overcast
4:53 PM 57.9 °F - 48.9 °F 72% 29.83 in 10.0 mi Calm Calm - N/A   Overcast
5:53 PM 57.0 °F - 48.9 °F 74% 29.83 in 10.0 mi Calm Calm - N/A   Overcast
6:05 PM 57.2 °F - 48.2 °F 72% 29.84 in 10.0 mi Calm Calm - N/A   Overcast
7:53 PM 57.9 °F - 50.0 °F 75% 29.85 in 9.0 mi SSW 4.6 mph - N/A   Overcast
8:53 PM 55.9 °F - 50.0 °F 80% 29.85 in 8.0 mi South 4.6 mph - N/A   Overcast
9:09 PM 55.4 °F - 50.0 °F 82% 29.86 in 8.0 mi SSW 3.5 mph - N/A   Overcast
9:53 PM 55.9 °F - 50.0 °F 80% 29.86 in 7.0 mi SW 4.6 mph - N/A   Overcast
10:43 PM 55.4 °F - 51.8 °F 88% 29.87 in 6.0 mi SW 6.9 mph - N/A   Overcast
10:53 PM 55.0 °F - 52.0 °F 89% 29.86 in 6.0 mi SW 5.8 mph - N/A   Overcast
11:22 PM 55.4 °F - 51.8 °F 88% 29.87 in 5.0 mi SW 5.8 mph - N/A   Overcast
11:31 PM 55.4 °F - 51.8 °F 88% 29.87 in 5.0 mi SW 5.8 mph - N/A   Overcast
11:53 PM 55.0 °F - 52.0 °F 89% 29.86 in 5.0 mi WSW 5.8 mph - N/A   Overcast